Home   Weather   Cayenne   Past weeks
Flag for French Guiana

Past Weather in Cayenne, French Guiana — Yesterday and Last 2 Weeks

Now
81 °F

Partly sunny.


Feels Like: 86 °F
Forecast: 85 / 79 °F
Wind: 6 mph from East

Location: Cayenne / Rochambeau

Current Time: Apr 6, 2020 at 7:10:26 am

Latest Report: Apr 6, 2020 at 6:30 am


Visibility: N/A

Pressure: 29.89 "Hg

Humidity: 84%

Dew Point: 75 °F

Location of CayenneLocation

Past Weather in Cayenne — Graph

°F

Cayenne Temperature Yesterday

Maximum temperature yesterday: 88 °F (at 11:30 am)
Minimum temperature yesterday: 77 °F (at 6:30 am)
Average temperature yesterday: 83 °F

High & Low Weather Summary for the Past Weeks

 TemperatureHumidityPressure
High88 °F (Mar 22, 1:30 pm)100% (Mar 22, 7:30 am)30.01 "Hg (Mar 22, 7:30 am)
Low73 °F (Mar 22, 11:30 pm)59% (Mar 31, 11:30 am)29.77 "Hg (Mar 27, 3:00 am)
Average80 °F86%29.87 "Hg
* Reported Mar 22 6:00 am — Apr 6 6:00 am, Cayenne. Weather by CustomWeather, © 2020

Note: Actual official high and low records may vary slightly from our data, if they occured in-between our weather recording intervals... More about our weather records

Cayenne Weather History for the Previous 24 Hours

Scroll right to see more
 ConditionsComfort  
Time TempWeatherWind HumidityBarometerVisibility
6:00 am
Mon, Apr 6
81 °FPassing clouds.6 mph84%29.89 "HgN/A
5:30 am81 °FPartly cloudy.8 mph84%29.86 "HgN/A
5:00 am81 °FPassing clouds.6 mph84%29.86 "HgN/A
4:30 am81 °FPassing clouds.5 mph84%29.86 "HgN/A
4:00 am81 °FPartly cloudy.7 mph84%29.86 "HgN/A
3:30 am81 °FPartly cloudy.8 mph79%29.86 "HgN/A
3:00 am81 °FPassing clouds.9 mph84%29.86 "HgN/A
2:30 am81 °FLight rain. Mostly cloudy.9 mph84%29.86 "Hg4 mi
2:00 am81 °FPartly cloudy.6 mph79%29.86 "HgN/A
1:30 am81 °FOvercast.7 mph79%29.89 "HgN/A
1:00 am81 °FMostly cloudy.7 mph84%29.89 "HgN/A
12:30 am81 °FMostly cloudy.8 mph84%29.92 "HgN/A
12:00 am82 °FLight rain. Mostly cloudy.8 mph74%29.92 "HgN/A
11:30 pm
Sun, Apr 5
82 °FOvercast.8 mph74%29.92 "HgN/A
11:00 pm82 °FMostly cloudy.10 mph74%29.92 "HgN/A
10:30 pm82 °FMostly cloudy.9 mph74%29.92 "HgN/A
10:00 pm82 °FPassing clouds.9 mph74%29.89 "HgN/A
9:30 pm82 °FPassing clouds.10 mph74%29.89 "HgN/A
9:00 pm82 °FPartly cloudy.9 mph79%29.86 "HgN/A
8:30 pm82 °FPassing clouds.8 mph79%29.86 "HgN/A
8:00 pm82 °FPassing clouds.6 mph79%29.86 "HgN/A
7:30 pm82 °FPassing clouds.8 mph79%29.86 "HgN/A
7:00 pm82 °FPassing clouds.8 mph79%29.83 "HgN/A
6:30 pm84 °FBroken clouds.10 mph74%29.83 "HgN/A
6:00 pm84 °FBroken clouds.13 mph74%29.83 "HgN/A
5:30 pm84 °FPartly sunny.14 mph74%29.83 "HgN/A
5:00 pm86 °FScattered clouds.17 mph70%29.83 "HgN/A
4:30 pm86 °FScattered clouds.14 mph70%29.83 "HgN/A
4:00 pm88 °FBroken clouds.16 mph62%29.83 "HgN/A
3:30 pm88 °FScattered clouds.18 mph66%29.83 "HgN/A
3:00 pm86 °FPassing clouds.15 mph70%29.86 "HgN/A
2:30 pm86 °FBroken clouds.17 mph70%29.86 "HgN/A
2:00 pm88 °FBroken clouds.15 mph66%29.86 "HgN/A
1:30 pm88 °FPartly sunny.16 mph66%29.89 "HgN/A
1:00 pm88 °FMostly cloudy.17 mph66%29.89 "HgN/A
12:30 pm88 °FPartly sunny.16 mph66%29.92 "HgN/A
12:00 pm88 °FPartly sunny.16 mph66%29.92 "HgN/A
11:30 am88 °FBroken clouds.16 mph62%29.92 "HgN/A
11:00 am86 °FMostly cloudy.16 mph70%29.92 "HgN/A
10:30 am84 °FMostly cloudy.12 mph74%29.92 "HgN/A
10:00 am86 °FPartly sunny.12 mph70%29.92 "HgN/A
9:30 am84 °FPartly sunny.9 mph74%29.92 "HgN/A
9:00 am84 °FMostly cloudy.9 mph74%29.92 "HgN/A
8:30 am84 °FPassing clouds.6 mph74%29.89 "HgN/A
8:00 am81 °FSunny.No wind84%29.89 "Hg10 mi
7:30 am79 °FPassing clouds.No wind94%29.89 "HgN/A
7:00 am77 °FPartly sunny.No wind100%29.86 "Hg4 mi
Weather by CustomWeather, © 2020

See weather overview

Advertising